• In Germany
  • List of Countries
  • For 7 days
  • Water Temperature
  • Satellite Maps
  • Weather Map
  • Weather Widgets
  • user-avatar
    Login

    Hourly Weather Bugojno

    Today, 17 August, Thursday

    Time Temperature Precipitation Wind Pressure Humidity
    00:00 +19°C° 0 mm 1 mps 713 mmHg 79%
    01:00 +19°C° 0 mm 1 mps 713 mmHg 82%
    02:00 +18°C° 0.1 mm 1 mps 713 mmHg 82%
    03:00 +18°C° 0.1 mm 1 mps 713 mmHg 83%
    04:00 +18°C° 0.1 mm 1 mps 713 mmHg 83%
    05:00 +19°C° 0 mm 1 mps 713 mmHg 79%
    06:00 +21°C° 0 mm 1 mps 713 mmHg 74%
    07:00 +23°C° 0 mm 1 mps 714 mmHg 68%
    08:00 +25°C° 0 mm 2 mps 714 mmHg 61%
    09:00 +26°C° 0 mm 2 mps 714 mmHg 54%
    10:00 +28°C° 0 mm 3 mps 714 mmHg 47%
    11:00 +29°C° 0 mm 3 mps 714 mmHg 44%
    12:00 +30°C° 0 mm 3 mps 714 mmHg 42%
    13:00 +30°C° 0 mm 2 mps 714 mmHg 37%
    14:00 +30°C° 0 mm 3 mps 714 mmHg 38%
    15:00 +30°C° 0 mm 3 mps 714 mmHg 38%
    16:00 +30°C° 0 mm 3 mps 714 mmHg 39%
    17:00 +27°C° 0 mm 2 mps 713 mmHg 46%
    18:00 +25°C° 0 mm 2 mps 713 mmHg 53%
    19:00 +22°C° 0 mm 1 mps 713 mmHg 60%
    20:00 +21°C° 0 mm 1 mps 713 mmHg 61%
    21:00 +21°C° 0 mm 1 mps 713 mmHg 62%
    22:00 +20°C° 0 mm 1 mps 713 mmHg 64%
    23:00 +20°C° 0 mm 1 mps 713 mmHg 64%

    Tomorrow, 18 August, Friday

    Time Temperature Precipitation Wind Pressure Humidity
    00:00 +19°C° 0 mm 1 mps 713 mmHg 65%
    01:00 +19°C° 0 mm 1 mps 713 mmHg 65%
    02:00 +19°C° 0 mm 1 mps 713 mmHg 66%
    03:00 +18°C° 0 mm 1 mps 713 mmHg 66%
    04:00 +18°C° 0 mm 1 mps 713 mmHg 67%
    05:00 +20°C° 0 mm 1 mps 713 mmHg 64%
    06:00 +21°C° 0 mm 1 mps 714 mmHg 61%
    07:00 +23°C° 0 mm 1 mps 714 mmHg 58%
    08:00 +25°C° 0 mm 1 mps 714 mmHg 50%
    09:00 +28°C° 0 mm 1 mps 715 mmHg 42%
    10:00 +30°C° 0 mm 1 mps 715 mmHg 34%
    11:00 +31°C° 0 mm 1 mps 715 mmHg 32%
    12:00 +32°C° 0 mm 1 mps 715 mmHg 30%
    13:00 +33°C° 0 mm 1 mps 714 mmHg 28%
    14:00 +32°C° 0 mm 1 mps 714 mmHg 29%
    15:00 +32°C° 0 mm 1 mps 714 mmHg 30%
    16:00 +32°C° 0 mm 1 mps 713 mmHg 30%
    17:00 +29°C° 0 mm 1 mps 713 mmHg 38%
    18:00 +26°C° 0 mm 1 mps 712 mmHg 46%
    19:00 +23°C° 0 mm 1 mps 712 mmHg 53%
    20:00 +23°C° 0 mm 1 mps 712 mmHg 56%
    21:00 +22°C° 0 mm 1 mps 712 mmHg 58%
    22:00 +21°C° 0 mm 1 mps 712 mmHg 61%
    23:00 +21°C° 0 mm 1 mps 712 mmHg 61%

    Day after tomorrow, 19 August, Saturday

    Time Temperature Precipitation Wind Pressure Humidity
    00:00 +21°C° 0 mm 1 mps 712 mmHg 62%
    01:00 +21°C° 0 mm 1 mps 712 mmHg 62%
    02:00 +20°C° 0 mm 1 mps 711 mmHg 63%
    03:00 +20°C° 0 mm 1 mps 711 mmHg 63%
    04:00 +20°C° 0 mm 1 mps 711 mmHg 64%
    05:00 +21°C° 0 mm 1 mps 711 mmHg 62%
    06:00 +23°C° 0 mm 1 mps 711 mmHg 60%
    07:00 +24°C° 0 mm 1 mps 712 mmHg 58%
    08:00 +27°C° 0 mm 1 mps 712 mmHg 49%
    09:00 +29°C° 0 mm 1 mps 712 mmHg 41%
    10:00 +32°C° 0 mm 1 mps 713 mmHg 33%
    11:00 +32°C° 0 mm 1 mps 712 mmHg 32%
    12:00 +33°C° 0 mm 1 mps 712 mmHg 31%
    13:00 +35°C° 0 mm 2 mps 712 mmHg 29%
    14:00 +32°C° 0 mm 2 mps 712 mmHg 34%
    15:00 +31°C° 0 mm 2 mps 711 mmHg 39%
    16:00 +30°C° 0 mm 2 mps 711 mmHg 43%
    17:00 +28°C° 0 mm 1 mps 711 mmHg 49%
    18:00 +27°C° 0 mm 1 mps 711 mmHg 54%
    19:00 +25°C° 0 mm 1 mps 712 mmHg 60%
    20:00 +23°C° 0 mm 1 mps 712 mmHg 66%
    21:00 +22°C° 0 mm 1 mps 712 mmHg 73%
    22:00 +19°C° 0 mm 2 mps 713 mmHg 79%
    23:00 +19°C° 0.1 mm 2 mps 713 mmHg 83%

    20 August, Sunday

    Time Temperature Precipitation Wind Pressure Humidity
    00:00 +18°C° 0.1 mm 2 mps 713 mmHg 87%
    01:00 +17°C° 0.1 mm 2 mps 713 mmHg 91%
    02:00 +17°C° 0.5 mm 2 mps 713 mmHg 92%
    03:00 +17°C° 0.5 mm 2 mps 713 mmHg 92%
    04:00 +17°C° 0.5 mm 2 mps 713 mmHg 93%
    05:00 +17°C° 0.8 mm 2 mps 713 mmHg 92%
    06:00 +17°C° 0.8 mm 2 mps 713 mmHg 92%
    07:00 +17°C° 0.8 mm 2 mps 713 mmHg 91%
    08:00 +18°C° 0.9 mm 2 mps 713 mmHg 88%
    09:00 +19°C° 0.9 mm 2 mps 714 mmHg 86%
    10:00 +20°C° 0.9 mm 2 mps 714 mmHg 83%
    11:00 +20°C° 0.5 mm 2 mps 714 mmHg 81%
    12:00 +20°C° 0.5 mm 2 mps 714 mmHg 79%
    13:00 +21°C° 0.5 mm 2 mps 713 mmHg 77%
    14:00 +20°C° 0.3 mm 2 mps 713 mmHg 78%
    15:00 +20°C° 0.3 mm 2 mps 713 mmHg 78%
    16:00 +20°C° 0.3 mm 2 mps 713 mmHg 79%
    17:00 +19°C° 0.2 mm 2 mps 713 mmHg 83%
    18:00 +18°C° 0.2 mm 2 mps 712 mmHg 86%
    19:00 +17°C° 0.2 mm 2 mps 712 mmHg 90%
    20:00 +16°C° 0 mm 2 mps 713 mmHg 90%
    21:00 +16°C° 0 mm 2 mps 713 mmHg 91%
    22:00 +15°C° 0 mm 2 mps 713 mmHg 91%
    23:00 +15°C° 0 mm 2 mps 713 mmHg 90%

    21 August, Monday

    Time Temperature Precipitation Wind Pressure Humidity
    00:00 +14°C° 0 mm 2 mps 713 mmHg 88%
    01:00 +14°C° 0 mm 2 mps 713 mmHg 87%
    02:00 +13°C° 0 mm 2 mps 713 mmHg 87%
    03:00 +13°C° 0 mm 2 mps 713 mmHg 86%
    04:00 +13°C° 0 mm 2 mps 713 mmHg 86%
    05:00 +14°C° 0 mm 2 mps 713 mmHg 84%
    06:00 +15°C° 0 mm 2 mps 714 mmHg 81%
    07:00 +16°C° 0 mm 3 mps 714 mmHg 79%
    08:00 +18°C° 0 mm 3 mps 714 mmHg 69%
    09:00 +19°C° 0 mm 4 mps 714 mmHg 59%
    10:00 +21°C° 0 mm 4 mps 715 mmHg 50%
    11:00 +22°C° 0 mm 4 mps 714 mmHg 47%
    12:00 +23°C° 0 mm 4 mps 714 mmHg 43%
    13:00 +23°C° 0 mm 4 mps 714 mmHg 40%
    14:00 +23°C° 0 mm 4 mps 714 mmHg 40%
    15:00 +23°C° 0 mm 4 mps 714 mmHg 39%
    16:00 +23°C° 0 mm 4 mps 713 mmHg 39%
    17:00 +21°C° 0 mm 4 mps 713 mmHg 44%
    18:00 +18°C° 0 mm 3 mps 713 mmHg 50%
    19:00 +16°C° 0 mm 2 mps 713 mmHg 55%
    20:00 +15°C° 0 mm 2 mps 713 mmHg 56%
    21:00 +14°C° 0 mm 2 mps 713 mmHg 58%
    22:00 +13°C° 0 mm 2 mps 714 mmHg 60%
    23:00 +13°C° 0 mm 2 mps 714 mmHg 61%

    22 August, Tuesday

    Time Temperature Precipitation Wind Pressure Humidity
    00:00 +12°C° 0 mm 2 mps 714 mmHg 63%
    01:00 +12°C° 0 mm 2 mps 714 mmHg 64%
    02:00 +12°C° 0 mm 2 mps 714 mmHg 67%
    03:00 +12°C° 0 mm 1 mps 714 mmHg 69%
    04:00 +11°C° 0 mm 1 mps 714 mmHg 71%
    05:00 +13°C° 0 mm 1 mps 714 mmHg 68%
    06:00 +15°C° 0 mm 1 mps 714 mmHg 64%
    07:00 +16°C° 0 mm 1 mps 715 mmHg 60%
    08:00 +18°C° 0 mm 2 mps 715 mmHg 53%
    09:00 +20°C° 0 mm 2 mps 715 mmHg 45%
    10:00 +22°C° 0 mm 3 mps 715 mmHg 37%
    11:00 +24°C° 0 mm 3 mps 715 mmHg 34%
    12:00 +25°C° 0 mm 3 mps 715 mmHg 32%
    13:00 +26°C° 0 mm 2 mps 715 mmHg 29%
    14:00 +26°C° 0 mm 2 mps 714 mmHg 30%
    15:00 +26°C° 0 mm 2 mps 714 mmHg 30%
    16:00 +26°C° 0 mm 2 mps 714 mmHg 31%
    17:00 +23°C° 0 mm 1 mps 713 mmHg 38%
    18:00 +21°C° 0 mm 1 mps 713 mmHg 46%
    19:00 +18°C° 0 mm 1 mps 712 mmHg 53%
    20:00 +16°C° 0 mm 1 mps 712 mmHg 54%
    21:00 +15°C° 0 mm 1 mps 713 mmHg 55%
    22:00 +15°C° 0 mm 1 mps 713 mmHg 56%
    23:00 +15°C° 0 mm 1 mps 712 mmHg 55%
    Show more